Dewpoint
11 10 10 11 11 10 11 12 11 11 11 11 11 11 11 11 11 11 11 12 12 11 8 8 5 -1 3 8 7 5 6 12 13 12 12 12 10 11 11 12 10 7 7
11 11 10 11 11 12 11 12 11 11 11 11 11 11 11 12 12 12 12 12 12 12 12 11 9 6 1 -4 4 9 6 9 11 11 12 12 12 12 11 11 12 11 10
11 11 11 12 12 11 11 12 13 13 12 12 12 12 12 12 12 11 10 9 9 10 10 11 11 11 10 9 2 -4 9 12 12 12 11 11 12 12 12 12 12 12 12
11 10 11 12 12 12 12 12 12 11 11 10 10 9 9 8 8 7 6 5 5 6 7 8 9 10 11 10 9 6 -2 5 9 10 10 11 10 11 10 11 12 12 12
9 10 10 9 9 9 8 8 7 6 4 3 3 2 1 -0 -1 -1 -3 -4 -3 -3 -1 2 3 5 7 8 8 8 8 6 8 8 7 6 9 9 8 8 10 11 12
9 9 2 -0 -1 -1 -2 -2 -3 -3 -4 -4 -4 -5 -4 -4 -3 -3 -4 -4 -5 -5 -4 -4 -4 -3 -1 0 3 7 8 11 12 11 10 11 5 0 1 5 8 10 10
6 4 2 1 -0 -0 -0 -1 -1 -2 -2 -2 -2 -2 -2 -2 -3 -3 -3 -4 -3 -3 -2 -2 -3 -3 -3 -3 -3 -3 2 8 11 11 10 11 11 11 6 -5 -6 4 10
4 4 3 3 2 2 2 1 1 1 0 0 -0 -0 -1 -2 -2 -2 -2 -2 -2 -3 -3 -2 -3 -3 -4 -4 -4 -4 -5 -2 8 10 9 10 10 11 11 10 4 -6 -3
5 5 4 3 3 3 3 3 2 2 1 1 0 -0 -1 -1 -2 -2 -3 -3 -3 -3 -3 -3 -3 -3 -4 -4 -4 -4 -4 -4 1 3 7 9 9 10 10 10 11 11 2
6 6 4 3 3 4 4 3 3 2 1 0 -0 -1 -2 -3 -4 -4 -5 -6 -7 -7 -8 -8 -8 -7 -7 -6 -5 -4 -4 -4 -3 -0 1 3 6 6 7 8 8 10 11
6 5 4 4 4 4 4 4 3 1 -0 -2 -3 -4 -5 -6 -7 -9 -10 -10 -11 -11 -11 -12 -12 -12 -13 -12 -12 -12 -10 -7 -5 -3 -1 -1 -2 -2 -1 -1 1 4 8
5 4 4 4 5 4 3 2 1 -1 -3 -4 -6 -7 -9 -10 -10 -10 -11 -11 -12 -13 -14 -15 -16 -17 -18 -18 -18 -18 -18 -17 -15 -14 -10 -6 -3 -3 -4 -4 -4 -3 1
4 3 4 4 4 3 2 1 -1 -3 -6 -7 -9 -10 -10 -10 -11 -11 -12 -14 -15 -17 -17 -17 -17 -16 -16 -16 -16 -16 -16 -17 -18 -19 -20 -20 -18 -16 -15 -14 -11 -5 -4
4 4 4 3 3 3 2 -0 -3 -6 -8 -9 -10 -10 -11 -11 -12 -13 -15 -17 -17 -16 -16 -15 -15 -16 -17 -19 -19 -20 -21 -21 -22 -22 -21 -21 -20 -21 -22 -21 -20 -17 -15
5 5 4 3 3 2 -1 -5 -7 -9 -10 -10 -10 -11 -11 -12 -15 -16 -17 -17 -16 -15 -16 -17 -19 -21 -26 -29 -32 -34 -35 -36 -36 -36 -34 -34 -34 -32 -30 -28 -27 -24 -10
5 4 3 3 2 -1 -5 -8 -9 -10 -11 -11 -11 -12 -13 -15 -16 -17 -16 -16 -17 -20 -22 -24 -28 -33 -36 -36 -37 -37 -37 -37 -38 -38 -38 -38 -37 -37 -37 -36 -31 -11 -6
4 3 3 3 -0 -5 -8 -10 -11 -11 -11 -12 -12 -13 -15 -16 -17 -16 -16 -17 -19 -22 -28 -34 -36 -37 -37 -37 -38 -38 -38 -38 -38 -37 -33 -32 -32 -29 -25 -10 -1 -2 -6
3 2 2 2 -3 -8 -11 -11 -12 -12 -12 -13 -14 -15 -16 -17 -17 -16 -17 -18 -23 -31 -36 -37 -37 -37 -38 -38 -38 -38 -38 -38 -36 -31 -29 -28 -25 -25 -19 -10 -9 -8 -1
2 1 1 0 -7 -11 -12 -13 -13 -13 -13 -14 -14 -16 -17 -17 -17 -18 -19 -25 -33 -36 -37 -37 -37 -37 -37 -38 -38 -38 -38 -38 -33 -36 -30 -23 -18 -17 -17 -16 -15 -13 -10
1 -0 -1 -3 -10 -13 -14 -14 -14 -14 -14 -14 -16 -17 -17 -18 -18 -22 -27 -32 -36 -36 -37 -37 -37 -37 -36 -37 -38 -38 -38 -37 -37 -32 -21 -16 -16 -23 -23 -22 -23 -22 -22
-2 -2 -3 -8 -13 -14 -14 -14 -14 -13 -14 -16 -17 -17 -18 -19 -21 -26 -31 -35 -36 -36 -35 -35 -36 -37 -36 -35 -37 -38 -38 -37 -33 -24 -21 -34 -28 -27 -26 -28 -24 -21 -21
-2 -3 -8 -13 -14 -15 -15 -14 -13 -15 -16 -16 -16 -18 -19 -21 -25 -30 -34 -35 -35 -35 -35 -35 -34 -35 -36 -32 -28 -26 -25 -32 -20 -29 -26 -31 -31 -29 -32 -33 -26 -22 -20
-5 -5 -11 -14 -15 -15 -15 -15 -15 -17 -16 -15 -18 -19 -20 -23 -28 -32 -34 -35 -34 -34 -34 -33 -33 -32 -32 -34 -29 -21 -15 -13 -16 -20 -26 -22 -22 -24 -28 -24 -21 -20 -18
-6 -8 -12 -15 -16 -16 -16 -16 -16 -15 -16 -17 -18 -19 -22 -26 -30 -33 -34 -34 -33 -32 -32 -33 -34 -33 -29 -29 -30 -27 -20 -15 -11 -11 -13 -14 -14 -15 -20 -19 -18 -18 -18
-7 -10 -12 -14 -15 -16 -16 -16 -16 -16 -17 -17 -18 -20 -25 -29 -32 -33 -33 -32 -31 -32 -34 -35 -34 -32 -27 -25 -22 -20 -19 -18 -17 -12 -11 -12 -12 -13 -12 -11 -13 -16 -16
-8 -11 -12 -13 -15 -16 -17 -16 -16 -16 -17 -17 -19 -22 -27 -31 -32 -32 -31 -31 -33 -35 -34 -30 -28 -25 -23 -21 -19 -17 -15 -13 -12 -11 -11 -11 -11 -12 -11 -11 -12 -13 -14
Wind_Speed
11 5 8 12 13 12 10 12 12 13 14 14 14 15 16 16 16 17 17 17 18 19 18 17 17 17 15 15 16 16 16 18 17 16 15 12 9 7 7 8 8 9 10
15 14 8 12 12 12 15 14 13 14 14 15 15 15 16 16 15 15 15 16 17 17 16 16 16 16 16 14 12 14 15 16 15 13 13 13 10 7 5 5 5 5 6
4 13 23 25 19 14 13 18 18 20 19 18 17 15 14 13 13 12 12 11 10 10 12 13 14 14 14 14 14 12 12 15 15 14 10 8 8 7 4 3 3 3 4
7 4 9 12 14 14 15 14 12 11 11 10 9 7 6 8 9 10 9 9 9 9 8 8 9 10 11 11 13 13 12 8 7 8 5 2 3 7 6 5 3 2 1
14 6 7 11 11 11 12 10 8 8 9 8 8 8 8 8 8 8 8 8 8 9 8 8 8 7 8 9 11 11 11 8 7 9 7 3 4 5 5 4 4 3 4
11 9 6 9 11 11 11 10 9 9 9 9 9 8 8 9 9 10 10 10 9 10 10 10 9 9 8 8 8 8 9 9 9 7 7 9 8 7 8 7 4 4 6
13 12 9 9 9 8 9 9 8 8 8 7 7 7 7 7 7 7 8 8 8 8 7 7 7 7 8 8 7 6 5 6 4 7 8 11 11 11 10 8 9 9 6
12 11 10 9 8 8 8 7 7 7 5 5 5 4 4 4 4 5 6 7 7 7 7 8 7 7 5 5 6 5 3 3 2 1 0 6 7 9 9 11 9 9 9
14 11 11 9 8 7 6 6 5 4 3 3 2 2 3 3 3 4 5 5 6 7 7 7 8 9 9 9 6 5 4 3 1 5 4 3 6 11 13 11 8 9 11
15 14 11 10 9 7 6 5 3 1 0 1 1 2 2 3 4 4 5 5 6 6 5 6 6 7 7 8 8 8 8 6 5 6 9 9 10 12 13 13 12 11 9
17 15 13 10 9 8 6 4 3 2 1 1 0 1 1 2 3 3 5 6 7 9 9 9 9 9 9 7 7 7 7 8 8 8 11 13 14 14 15 15 16 16 15
19 17 14 12 10 7 6 5 4 4 3 3 2 1 1 2 3 4 5 6 6 7 8 8 8 9 9 10 10 9 9 8 8 9 11 14 17 19 19 19 19 18 18
21 19 16 14 11 10 9 8 7 6 6 4 2 1 1 3 4 4 4 4 6 8 9 10 11 12 13 14 13 14 14 14 14 13 13 13 14 16 18 20 21 22 23
23 20 17 15 13 11 10 9 8 8 6 4 2 1 2 3 4 4 5 6 8 9 11 13 14 15 16 17 17 17 17 18 18 18 18 19 18 19 19 19 19 21 21
24 21 18 16 14 13 12 11 10 9 7 5 3 1 1 1 2 4 6 8 11 12 14 16 18 18 18 18 18 18 18 18 18 18 19 19 21 22 22 22 22 21 20
26 23 19 16 15 15 15 13 11 9 6 4 3 2 1 1 2 5 8 10 12 15 18 20 21 21 20 20 19 19 19 18 18 19 19 17 17 18 20 21 19 17 18
28 25 21 19 18 17 15 13 10 9 7 5 4 2 1 1 4 7 10 12 16 18 19 19 19 20 21 22 22 23 23 23 23 20 15 14 14 13 13 12 10 10 15
29 26 22 20 19 19 17 15 13 11 8 6 5 3 0 3 6 9 12 15 17 18 19 20 22 23 24 25 26 25 26 26 22 17 16 16 14 14 14 15 17 17 17
31 27 26 24 23 22 19 16 14 11 8 7 5 2 1 4 7 10 13 15 17 18 20 21 22 25 27 28 29 28 28 25 20 24 20 16 15 14 14 19 23 23 23
31 29 27 26 25 23 20 18 16 13 10 8 5 2 2 6 9 11 14 15 17 18 19 20 22 23 26 29 30 29 27 23 26 20 14 12 14 21 22 21 23 24 25
33 32 30 28 27 25 24 21 18 14 10 8 5 2 3 6 9 11 13 15 16 18 20 21 23 24 26 31 34 35 31 28 20 8 13 31 26 22 24 26 24 25 25
37 34 31 29 28 26 23 19 14 11 11 9 5 2 5 7 9 11 13 14 15 17 18 20 23 26 27 29 31 29 23 30 9 26 17 23 30 17 30 30 25 26 27
38 35 32 31 29 25 22 19 17 15 13 9 3 3 6 8 10 12 13 14 16 18 20 22 23 25 27 26 24 19 11 8 41 11 37 19 24 35 31 35 33 30 30
39 34 32 31 28 25 23 20 18 15 12 8 4 3 6 8 11 13 15 16 18 20 21 22 23 23 24 25 25 21 19 23 18 22 14 24 22 30 38 36 36 35 33
38 36 34 30 27 25 23 20 17 14 11 7 3 4 6 8 11 13 15 16 18 20 21 22 22 22 22 23 22 24 25 26 28 31 39 25 40 37 33 33 36 35 34
38 36 34 31 28 25 22 19 16 13 9 5 3 5 7 9 11 12 14 17 19 20 21 21 21 21 22 22 23 23 24 25 28 30 38 41 41 43 35 35 32 33 32
Wind_Direction
93 112 130 108 103 98 105 103 112 99 94 97 94 91 87 82 76 74 71 68 62 53 49 53 58 64 69 72 72 71 75 74 70 68 67 58 69 80 78 69 66 73 71
64 87 169 114 110 103 98 95 93 102 101 98 97 94 91 87 88 85 81 74 72 64 58 53 45 50 58 66 76 80 83 79 66 63 56 57 49 59 67 73 71 77 65
92 54 62 104 122 120 113 105 100 107 104 103 98 94 90 83 81 81 76 69 68 72 74 65 56 54 51 49 58 71 90 91 83 66 51 51 23 40 43 56 64 60 66
152 67 83 119 140 148 159 143 131 125 126 112 98 84 79 68 57 55 50 50 49 52 54 53 57 59 60 60 58 62 69 88 88 90 64 77 29 13 11 359 13 29 43
144 122 109 117 122 125 128 123 117 104 94 89 85 75 67 62 58 57 53 50 44 43 38 42 37 40 41 42 45 56 67 78 67 49 22 349 308 328 348 346 354 334 321
138 127 115 114 119 117 111 108 98 86 79 75 70 62 57 54 54 53 54 55 52 50 46 42 38 39 39 37 38 48 59 81 77 62 14 358 355 338 321 309 304 326 320
147 143 144 130 120 108 101 97 92 86 84 79 75 72 62 53 45 44 45 45 47 50 48 47 47 39 34 37 43 47 58 73 94 56 18 357 350 348 344 325 308 300 302
157 156 154 143 128 118 111 103 98 96 89 85 82 73 68 53 46 36 32 33 26 26 20 12 10 11 11 16 20 19 21 68 103 134 141 333 324 333 340 344 325 301 291
169 166 158 154 152 141 125 121 117 115 123 120 108 78 54 49 41 34 27 24 14 14 9 1 359 354 354 353 354 342 340 353 292 262 226 245 279 289 293 298 321 323 307
182 177 174 168 156 153 151 148 152 181 217 327 320 39 40 46 36 32 28 28 22 21 19 9 9 359 356 350 343 338 331 320 287 275 275 269 270 273 280 286 288 286 298
187 188 177 176 172 176 173 181 187 194 206 189 282 76 66 46 44 36 27 22 16 10 5 3 358 357 349 344 337 332 322 315 306 291 282 286 286 286 291 293 290 290 286
190 193 184 187 197 198 192 196 195 186 178 177 166 129 91 37 28 25 22 15 11 2 358 358 354 355 346 349 352 343 334 322 306 296 290 287 290 297 297 294 288 283 282
193 189 184 186 195 205 208 209 203 193 197 188 161 134 35 13 6 4 4 10 15 6 357 355 350 346 342 338 336 330 324 318 314 307 299 292 289 287 289 293 295 294 291
193 191 192 194 203 213 221 216 209 203 195 186 170 80 38 5 347 351 4 9 4 357 347 342 341 339 334 333 329 324 320 317 314 308 302 297 291 287 285 283 284 286 287
198 197 198 203 211 218 214 207 202 198 200 198 206 224 247 297 349 9 9 3 357 346 341 340 339 336 332 330 329 326 323 320 318 310 304 302 299 296 292 288 285 281 284
202 202 202 208 217 212 206 204 203 204 204 197 192 194 201 349 5 5 2 357 352 347 346 342 340 338 338 336 336 334 332 333 328 323 320 312 304 296 291 288 291 306 302
203 204 200 212 211 206 203 202 204 207 204 195 201 197 191 360 2 1 358 353 350 347 344 342 341 340 339 339 339 339 339 339 335 334 330 320 315 316 309 329 342 308 294
207 206 203 211 209 203 200 201 200 199 200 199 200 202 210 360 359 357 351 348 348 346 345 343 342 342 340 338 337 339 340 339 341 341 331 330 323 315 314 306 297 294 289
211 207 206 209 206 201 198 197 199 200 199 203 208 210 335 358 357 352 349 350 350 347 344 344 345 344 341 338 337 336 339 341 339 328 328 328 324 319 309 297 294 293 289
212 209 208 207 202 197 196 197 199 201 203 204 205 218 331 349 350 353 354 350 348 346 344 345 346 345 342 336 333 330 333 336 329 328 331 333 325 314 307 302 301 296 292
212 209 208 205 199 198 198 200 201 204 198 199 206 240 323 346 349 352 349 347 345 346 349 347 343 341 342 340 335 328 329 333 330 315 323 305 298 307 305 312 310 303 298
211 207 204 200 200 199 201 204 202 196 196 203 212 279 333 345 351 348 345 345 345 346 346 344 344 342 341 347 348 345 341 338 316 305 314 315 308 311 310 311 309 303 300
209 205 201 200 200 198 197 197 193 192 201 199 221 302 330 342 343 341 340 342 343 343 342 343 342 342 339 340 345 346 335 311 319 327 310 310 308 310 314 313 309 306 302
207 203 201 200 198 195 194 195 197 203 200 201 227 298 328 334 334 334 336 341 341 340 337 337 337 337 334 334 333 331 316 307 310 313 310 294 312 305 312 311 311 310 308
204 201 200 200 196 196 194 194 197 196 195 203 235 299 320 326 329 331 334 335 333 333 333 333 333 332 331 328 325 320 314 310 305 300 303 304 304 311 309 305 310 312 312
199 199 200 199 195 194 192 192 194 194 196 210 255 300 313 319 324 327 328 329 330 331 331 331 330 328 325 322 318 314 310 305 301 296 295 301 305 309 306 306 309 311 314
Height
1551 1550 1550 1548 1548 1548 1549 1548 1549 1548 1547 1550 1551 1550 1550 1549 1549 1549 1549 1549 1548 1547 1547 1546 1544 1543 1543 1543 1543 1543 1543 1543 1542 1542 1541 1541 1541 1541 1541 1541 1542 1542 1542
1551 1550 1550 1550 1549 1548 1549 1548 1548 1548 1549 1551 1551 1551 1550 1550 1549 1549 1549 1549 1548 1548 1548 1548 1547 1545 1545 1545 1544 1544 1544 1544 1544 1543 1543 1543 1542 1542 1542 1542 1542 1543 1543
1552 1547 1542 1545 1546 1546 1548 1548 1547 1547 1548 1549 1549 1550 1550 1550 1550 1549 1549 1549 1548 1549 1549 1549 1548 1547 1547 1546 1546 1546 1546 1545 1545 1545 1545 1544 1543 1543 1543 1543 1543 1543 1544
1550 1547 1547 1548 1547 1549 1548 1549 1550 1550 1550 1549 1549 1550 1551 1551 1550 1550 1549 1549 1549 1549 1549 1549 1548 1547 1547 1546 1546 1546 1546 1546 1546 1545 1545 1544 1544 1544 1544 1543 1543 1543 1543
1546 1546 1547 1548 1548 1550 1549 1550 1550 1550 1550 1550 1551 1551 1551 1551 1551 1551 1550 1549 1549 1548 1548 1548 1547 1547 1547 1546 1546 1546 1546 1546 1546 1545 1545 1545 1544 1544 1544 1543 1543 1543 1544
1543 1543 1548 1548 1550 1550 1549 1549 1549 1550 1550 1551 1551 1551 1551 1550 1551 1551 1550 1549 1549 1548 1549 1548 1548 1547 1547 1546 1546 1546 1546 1546 1546 1544 1545 1545 1544 1544 1544 1543 1543 1542 1543
1543 1548 1550 1549 1548 1548 1549 1549 1550 1549 1551 1551 1551 1552 1551 1551 1550 1549 1548 1548 1548 1548 1548 1548 1547 1547 1546 1545 1545 1544 1544 1545 1545 1545 1545 1545 1544 1543 1543 1542 1542 1542 1542
1542 1544 1546 1547 1547 1549 1549 1549 1550 1550 1551 1552 1551 1551 1550 1549 1549 1549 1548 1547 1548 1547 1547 1547 1546 1546 1546 1545 1544 1543 1543 1544 1544 1543 1543 1544 1543 1542 1542 1541 1540 1540 1540
1541 1542 1544 1546 1547 1548 1548 1549 1549 1550 1551 1550 1550 1550 1548 1549 1549 1548 1547 1547 1547 1546 1546 1547 1545 1545 1544 1544 1543 1542 1542 1542 1542 1541 1540 1540 1541 1541 1539 1538 1538 1538 1537
1540 1541 1542 1543 1545 1547 1547 1547 1548 1548 1548 1548 1548 1547 1548 1548 1548 1547 1547 1546 1546 1546 1545 1545 1544 1545 1543 1543 1542 1540 1541 1541 1540 1539 1538 1537 1537 1536 1536 1535 1534 1534 1534
1538 1540 1541 1542 1544 1546 1545 1545 1546 1546 1547 1547 1547 1548 1547 1547 1546 1546 1546 1545 1544 1543 1543 1541 1542 1541 1542 1540 1539 1538 1538 1537 1537 1537 1536 1535 1534 1534 1533 1532 1532 1532 1531
1536 1538 1539 1540 1542 1543 1543 1544 1544 1545 1546 1546 1546 1546 1545 1544 1544 1544 1544 1544 1542 1541 1541 1540 1541 1539 1539 1537 1535 1535 1534 1534 1534 1533 1532 1531 1530 1530 1529 1529 1528 1526 1526
1535 1537 1538 1539 1540 1541 1542 1542 1543 1544 1545 1544 1544 1544 1543 1543 1543 1543 1543 1541 1539 1539 1540 1539 1538 1536 1535 1533 1532 1531 1530 1529 1529 1529 1527 1527 1526 1525 1524 1524 1524 1524 1523
1531 1533 1535 1536 1537 1539 1540 1541 1541 1543 1544 1542 1541 1542 1542 1542 1542 1542 1541 1539 1538 1537 1539 1538 1536 1534 1532 1530 1528 1527 1526 1525 1525 1523 1522 1521 1521 1519 1519 1518 1518 1517 1517
1527 1529 1531 1533 1535 1536 1538 1539 1540 1541 1541 1538 1540 1540 1540 1541 1542 1541 1539 1537 1535 1538 1538 1535 1532 1530 1529 1527 1525 1524 1523 1522 1520 1518 1517 1516 1515 1514 1513 1512 1512 1511 1510
1522 1525 1527 1530 1532 1533 1535 1537 1537 1537 1537 1537 1538 1539 1539 1539 1539 1537 1536 1536 1536 1535 1532 1529 1528 1526 1524 1522 1522 1521 1519 1517 1515 1514 1512 1511 1510 1509 1507 1504 1504 1504 1504
1518 1521 1524 1527 1529 1530 1532 1533 1533 1534 1535 1537 1537 1538 1538 1538 1537 1536 1536 1535 1533 1530 1528 1526 1525 1522 1520 1518 1517 1515 1513 1511 1509 1508 1506 1505 1504 1504 1503 1501 1499 1498 1499
1514 1517 1519 1522 1525 1527 1529 1530 1531 1533 1534 1535 1536 1537 1537 1536 1535 1534 1532 1530 1528 1526 1524 1523 1520 1518 1515 1513 1511 1510 1508 1506 1504 1503 1501 1502 1502 1501 1499 1497 1496 1496 1494
1509 1512 1515 1519 1521 1523 1525 1527 1529 1530 1532 1533 1533 1534 1534 1533 1532 1530 1529 1527 1525 1523 1521 1519 1516 1513 1510 1508 1506 1505 1504 1501 1499 1497 1497 1497 1497 1497 1496 1493 1493 1492 1491
1504 1508 1512 1514 1517 1519 1522 1524 1526 1528 1529 1529 1530 1530 1530 1530 1529 1527 1526 1524 1522 1520 1518 1516 1514 1512 1508 1505 1502 1501 1499 1497 1494 1493 1492 1494 1495 1494 1492 1490 1488 1487 1486
1498 1502 1505 1509 1512 1515 1517 1519 1522 1524 1526 1526 1527 1528 1527 1527 1525 1524 1523 1521 1519 1517 1514 1512 1511 1509 1505 1501 1496 1492 1491 1492 1490 1490 1490 1492 1491 1489 1487 1485 1482 1480 1479
1491 1496 1500 1504 1508 1511 1514 1517 1519 1521 1522 1523 1524 1525 1524 1523 1522 1521 1519 1518 1516 1515 1513 1510 1507 1505 1503 1500 1496 1490 1485 1485 1486 1488 1485 1486 1485 1482 1482 1479 1475 1472 1470
1484 1490 1495 1500 1504 1508 1511 1513 1516 1518 1519 1520 1521 1522 1521 1520 1519 1518 1517 1515 1513 1512 1509 1507 1505 1502 1499 1500 1498 1497 1494 1490 1482 1478 1481 1480 1478 1477 1474 1470 1468 1465 1462
1478 1486 1491 1495 1500 1504 1507 1510 1513 1515 1516 1518 1519 1519 1518 1517 1516 1515 1513 1512 1510 1509 1507 1504 1501 1499 1497 1496 1496 1497 1497 1495 1489 1472 1474 1474 1472 1471 1466 1462 1460 1458 1455
1474 1480 1485 1491 1496 1500 1503 1506 1509 1511 1513 1514 1515 1515 1515 1514 1513 1512 1510 1509 1507 1505 1503 1501 1499 1497 1495 1494 1493 1492 1491 1489 1488 1481 1462 1464 1463 1460 1458 1457 1455 1451 1447
1470 1476 1482 1487 1491 1496 1499 1502 1505 1508 1509 1510 1511 1512 1512 1511 1510 1509 1507 1506 1504 1502 1499 1497 1496 1494 1493 1491 1490 1489 1487 1485 1482 1479 1469 1459 1452 1450 1450 1448 1446 1445 1441